Year,Month,Day,Hour,Minute,Value (Times are PST for temperature in C)
2010,05,06,00,00,7.00
2010,05,06,00,01,7.00
2010,05,06,00,02,7.00
2010,05,06,00,03,6.90
2010,05,06,00,04,6.90
2010,05,06,00,05,6.90
2010,05,06,00,06,6.90
2010,05,06,00,07,6.80
2010,05,06,00,08,6.80
2010,05,06,00,09,6.80
2010,05,06,00,10,6.80
2010,05,06,00,11,6.80
2010,05,06,00,12,6.80
2010,05,06,00,13,6.80
2010,05,06,00,14,6.80
2010,05,06,00,15,6.80
2010,05,06,00,16,6.80
2010,05,06,00,17,6.80
2010,05,06,00,18,6.80
2010,05,06,00,19,6.80
2010,05,06,00,20,6.80
2010,05,06,00,21,6.80
2010,05,06,00,22,6.80
2010,05,06,00,23,6.80
2010,05,06,00,24,6.80
2010,05,06,00,25,6.80
2010,05,06,00,26,6.80
2010,05,06,00,27,6.80
2010,05,06,00,28,6.80
2010,05,06,00,29,6.80
2010,05,06,00,30,6.80
2010,05,06,00,31,6.80
2010,05,06,00,32,6.70
2010,05,06,00,33,6.70
2010,05,06,00,34,6.70
2010,05,06,00,35,6.70
2010,05,06,00,36,6.70
2010,05,06,00,37,6.70
2010,05,06,00,38,6.60
2010,05,06,00,39,6.60
2010,05,06,00,40,6.60
2010,05,06,00,41,6.60
2010,05,06,00,42,6.60
2010,05,06,00,43,6.60
2010,05,06,00,44,6.70
2010,05,06,00,45,6.70
2010,05,06,00,46,6.70
2010,05,06,00,47,6.80
2010,05,06,00,48,6.80
2010,05,06,00,49,6.80
2010,05,06,00,50,6.80
2010,05,06,00,51,6.80
2010,05,06,00,52,6.80
2010,05,06,00,53,6.80
2010,05,06,00,54,6.80
2010,05,06,00,55,6.90
2010,05,06,00,56,6.90
2010,05,06,00,57,6.90
2010,05,06,00,58,6.90
2010,05,06,00,59,6.90
2010,05,06,01,00,6.90
2010,05,06,01,01,6.80
2010,05,06,01,02,6.80
2010,05,06,01,03,6.80
2010,05,06,01,04,6.80
2010,05,06,01,05,6.80
2010,05,06,01,06,6.80
2010,05,06,01,07,6.80
2010,05,06,01,08,6.80
2010,05,06,01,09,6.80
2010,05,06,01,10,6.80
2010,05,06,01,11,6.80
2010,05,06,01,12,6.80
2010,05,06,01,13,6.80
2010,05,06,01,14,6.80
2010,05,06,01,15,6.80
2010,05,06,01,16,6.80
2010,05,06,01,17,6.80
2010,05,06,01,18,6.80
2010,05,06,01,19,6.80
2010,05,06,01,20,6.80
2010,05,06,01,21,6.80
2010,05,06,01,22,6.80
2010,05,06,01,23,6.80
2010,05,06,01,24,6.80
2010,05,06,01,25,6.80
2010,05,06,01,26,6.80
2010,05,06,01,27,6.80
2010,05,06,01,28,6.80
2010,05,06,01,29,6.80
2010,05,06,01,30,6.80
2010,05,06,01,31,6.80
2010,05,06,01,32,6.80
2010,05,06,01,33,6.80
2010,05,06,01,34,6.80
2010,05,06,01,35,6.70
2010,05,06,01,36,6.70
2010,05,06,01,37,6.70
2010,05,06,01,38,6.70
2010,05,06,01,39,6.70
2010,05,06,01,40,6.70
2010,05,06,01,41,6.70
2010,05,06,01,42,6.70
2010,05,06,01,43,6.70
2010,05,06,01,44,6.60
2010,05,06,01,45,6.60
2010,05,06,01,46,6.60
2010,05,06,01,47,6.60
2010,05,06,01,48,6.60
2010,05,06,01,49,6.60
2010,05,06,01,50,6.60
2010,05,06,01,51,6.60
2010,05,06,01,52,6.60
2010,05,06,01,53,6.60
2010,05,06,01,54,6.60
2010,05,06,01,55,6.60
2010,05,06,01,56,6.60
2010,05,06,01,57,6.60
2010,05,06,01,58,6.50
2010,05,06,01,59,6.40
2010,05,06,02,00,6.40
2010,05,06,02,01,6.40
2010,05,06,02,02,6.40
2010,05,06,02,03,6.40
2010,05,06,02,04,6.40
2010,05,06,02,05,6.40
2010,05,06,02,06,6.40
2010,05,06,02,07,6.40
2010,05,06,02,08,6.40
2010,05,06,02,09,6.40
2010,05,06,02,10,6.40
2010,05,06,02,11,6.40
2010,05,06,02,12,6.40
2010,05,06,02,13,6.40
2010,05,06,02,14,6.40
2010,05,06,02,15,6.40
2010,05,06,02,16,6.40
2010,05,06,02,17,6.40
2010,05,06,02,18,6.40
2010,05,06,02,19,6.40
2010,05,06,02,20,6.40
2010,05,06,02,21,6.40
2010,05,06,02,22,6.40
2010,05,06,02,23,6.60
2010,05,06,02,24,6.60
2010,05,06,02,25,6.60
2010,05,06,02,26,6.60
2010,05,06,02,27,6.60
2010,05,06,02,28,6.60
2010,05,06,02,29,6.60
2010,05,06,02,30,6.60
2010,05,06,02,31,6.60
2010,05,06,02,32,6.60
2010,05,06,02,33,6.60
2010,05,06,02,34,6.60
2010,05,06,02,35,6.60
2010,05,06,02,36,6.60
2010,05,06,02,37,6.60
2010,05,06,02,38,6.60
2010,05,06,02,39,6.60
2010,05,06,02,40,6.60
2010,05,06,02,41,6.60
2010,05,06,02,42,6.60
2010,05,06,02,43,6.60
2010,05,06,02,44,6.60
2010,05,06,02,45,6.60
2010,05,06,02,46,6.60
2010,05,06,02,47,6.60
2010,05,06,02,48,6.60
2010,05,06,02,49,6.60
2010,05,06,02,50,6.60
2010,05,06,02,51,6.60
2010,05,06,02,52,6.60
2010,05,06,02,53,6.60
2010,05,06,02,54,6.60
2010,05,06,02,55,6.60
2010,05,06,02,56,6.60
2010,05,06,02,57,6.60
2010,05,06,02,58,6.60
2010,05,06,02,59,6.60
2010,05,06,03,00,6.60
2010,05,06,03,01,6.60
2010,05,06,03,02,6.60
2010,05,06,03,03,6.60
2010,05,06,03,04,6.60
2010,05,06,03,05,6.50
2010,05,06,03,06,6.40
2010,05,06,03,07,6.40
2010,05,06,03,08,6.40
2010,05,06,03,09,6.40
2010,05,06,03,10,6.40
2010,05,06,03,11,6.40
2010,05,06,03,12,6.40
2010,05,06,03,13,6.40
2010,05,06,03,14,6.40
2010,05,06,03,15,6.40
2010,05,06,03,16,6.40
2010,05,06,03,17,6.40
2010,05,06,03,18,6.40
2010,05,06,03,19,6.40
2010,05,06,03,20,6.40
2010,05,06,03,21,6.40
2010,05,06,03,22,6.40
2010,05,06,03,23,6.40
2010,05,06,03,24,6.40
2010,05,06,03,25,6.40
2010,05,06,03,26,6.40
2010,05,06,03,27,6.40
2010,05,06,03,28,6.40
2010,05,06,03,29,6.40
2010,05,06,03,30,6.40
2010,05,06,03,31,6.30
2010,05,06,03,32,6.30
2010,05,06,03,33,6.30
2010,05,06,03,34,6.30
2010,05,06,03,35,6.30
2010,05,06,03,36,6.30
2010,05,06,03,37,6.20
2010,05,06,03,38,6.20
2010,05,06,03,39,6.20
2010,05,06,03,40,6.20
2010,05,06,03,41,6.20
2010,05,06,03,42,6.20
2010,05,06,03,43,6.20
2010,05,06,03,44,6.20
2010,05,06,03,45,6.10
2010,05,06,03,46,6.10
2010,05,06,03,47,6.00
2010,05,06,03,48,6.00
2010,05,06,03,49,6.00
2010,05,06,03,50,5.90
2010,05,06,03,51,5.90
2010,05,06,03,52,5.80
2010,05,06,03,53,5.80
2010,05,06,03,54,5.80
2010,05,06,03,55,5.70
2010,05,06,03,56,5.70
2010,05,06,03,57,5.70
2010,05,06,03,58,5.60
2010,05,06,03,59,5.60
2010,05,06,04,00,5.50
2010,05,06,04,01,5.50
2010,05,06,04,02,5.50
2010,05,06,04,03,5.40
2010,05,06,04,04,5.40
2010,05,06,04,05,5.40
2010,05,06,04,06,5.40
2010,05,06,04,07,5.40
2010,05,06,04,08,5.40
2010,05,06,04,09,5.40
2010,05,06,04,10,5.40
2010,05,06,04,11,5.30
2010,05,06,04,12,5.30
2010,05,06,04,13,5.30
2010,05,06,04,14,5.30
2010,05,06,04,15,5.30
2010,05,06,04,16,5.20
2010,05,06,04,17,5.20
2010,05,06,04,18,5.10
2010,05,06,04,19,5.10
2010,05,06,04,20,5.10
2010,05,06,04,21,5.10
2010,05,06,04,22,5.10
2010,05,06,04,23,5.10
2010,05,06,04,24,5.10
2010,05,06,04,25,5.10
2010,05,06,04,26,5.10
2010,05,06,04,27,5.00
2010,05,06,04,28,4.90
2010,05,06,04,29,4.90
2010,05,06,04,30,4.80
2010,05,06,04,31,4.70
2010,05,06,04,32,4.70
2010,05,06,04,33,4.70
2010,05,06,04,34,4.70
2010,05,06,04,35,4.60
2010,05,06,04,36,4.60
2010,05,06,04,37,4.60
2010,05,06,04,38,4.60
2010,05,06,04,39,4.60
2010,05,06,04,40,4.60
2010,05,06,04,41,4.50
2010,05,06,04,42,4.50
2010,05,06,04,43,4.50
2010,05,06,04,44,4.50
2010,05,06,04,45,4.50
2010,05,06,04,46,4.50
2010,05,06,04,47,4.50
2010,05,06,04,48,4.60
2010,05,06,04,49,4.60
2010,05,06,04,50,4.60
2010,05,06,04,51,4.60
2010,05,06,04,52,4.60
2010,05,06,04,53,4.60
2010,05,06,04,54,4.60
2010,05,06,04,55,4.60
2010,05,06,04,56,4.60
2010,05,06,04,57,4.50
2010,05,06,04,58,4.50
2010,05,06,04,59,4.40
2010,05,06,05,00,4.40
2010,05,06,05,01,4.40
2010,05,06,05,02,4.30
2010,05,06,05,03,4.30
2010,05,06,05,04,4.30
2010,05,06,05,05,4.20
2010,05,06,05,06,4.20
2010,05,06,05,07,4.20
2010,05,06,05,08,4.20
2010,05,06,05,09,4.20
2010,05,06,05,10,4.20
2010,05,06,05,11,4.20
2010,05,06,05,12,4.20
2010,05,06,05,13,4.20
2010,05,06,05,14,4.10
2010,05,06,05,15,4.10
2010,05,06,05,16,4.10
2010,05,06,05,17,4.10
2010,05,06,05,18,4.10
2010,05,06,05,19,4.10
2010,05,06,05,20,4.10
2010,05,06,05,21,4.10
2010,05,06,05,22,4.00
2010,05,06,05,23,4.00
2010,05,06,05,24,4.00
2010,05,06,05,25,4.00
2010,05,06,05,26,4.00
2010,05,06,05,27,4.00
2010,05,06,05,28,3.90
2010,05,06,05,29,3.80
2010,05,06,05,30,3.80
2010,05,06,05,31,3.80
2010,05,06,05,32,3.80
2010,05,06,05,33,3.80
2010,05,06,05,34,3.80
2010,05,06,05,35,3.80
2010,05,06,05,36,3.80
2010,05,06,05,37,3.80
2010,05,06,05,38,3.80
2010,05,06,05,39,3.80
2010,05,06,05,40,3.80
2010,05,06,05,41,3.80
2010,05,06,05,42,3.80
2010,05,06,05,43,3.70
2010,05,06,05,44,3.70
2010,05,06,05,45,3.60
2010,05,06,05,46,3.60
2010,05,06,05,47,3.50
2010,05,06,05,48,3.50
2010,05,06,05,49,3.40
2010,05,06,05,50,3.40
2010,05,06,05,51,3.40
2010,05,06,05,52,3.40
2010,05,06,05,53,3.30
2010,05,06,05,54,3.30
2010,05,06,05,55,3.30
2010,05,06,05,56,3.30
2010,05,06,05,57,3.30
2010,05,06,05,58,3.30
2010,05,06,05,59,3.30
2010,05,06,06,00,3.30
2010,05,06,06,01,3.30
2010,05,06,06,02,3.30
2010,05,06,06,03,3.20
2010,05,06,06,04,3.20
2010,05,06,06,05,3.20
2010,05,06,06,06,3.20
2010,05,06,06,07,3.20
2010,05,06,06,08,3.20
2010,05,06,06,09,3.20
2010,05,06,06,10,3.20
2010,05,06,06,11,3.20
2010,05,06,06,12,3.20
2010,05,06,06,13,3.20
2010,05,06,06,14,3.20
2010,05,06,06,15,3.20
2010,05,06,06,16,3.10
2010,05,06,06,17,3.10
2010,05,06,06,18,3.10
2010,05,06,06,19,3.10
2010,05,06,06,20,3.10
2010,05,06,06,21,3.10
2010,05,06,06,22,3.10
2010,05,06,06,23,3.10
2010,05,06,06,24,3.10
2010,05,06,06,25,3.10
2010,05,06,06,26,3.20
2010,05,06,06,27,3.20
2010,05,06,06,28,3.20
2010,05,06,06,29,3.20
2010,05,06,06,30,3.20
2010,05,06,06,31,3.20
2010,05,06,06,32,3.20
2010,05,06,06,33,3.30
2010,05,06,06,34,3.30
2010,05,06,06,35,3.30
2010,05,06,06,36,3.30
2010,05,06,06,37,3.40
2010,05,06,06,38,3.50
2010,05,06,06,39,3.50
2010,05,06,06,40,3.50
2010,05,06,06,41,3.60
2010,05,06,06,42,3.60
2010,05,06,06,43,3.70
2010,05,06,06,44,3.70
2010,05,06,06,45,3.80
2010,05,06,06,46,3.80
2010,05,06,06,47,3.90
2010,05,06,06,48,4.00
2010,05,06,06,49,4.00
2010,05,06,06,50,4.10
2010,05,06,06,51,4.20
2010,05,06,06,52,4.20
2010,05,06,06,53,4.20
2010,05,06,06,54,4.30
2010,05,06,06,55,4.40
2010,05,06,06,56,4.50
2010,05,06,06,57,4.60
2010,05,06,06,58,4.70
2010,05,06,06,59,4.90
2010,05,06,07,00,5.00
2010,05,06,07,01,5.10
2010,05,06,07,02,5.30
2010,05,06,07,03,5.40
2010,05,06,07,04,5.50
2010,05,06,07,05,5.60
2010,05,06,07,06,5.70
2010,05,06,07,07,5.70
2010,05,06,07,08,5.70
2010,05,06,07,09,5.70
2010,05,06,07,10,5.70
2010,05,06,07,11,5.80
2010,05,06,07,12,5.90
2010,05,06,07,13,5.90
2010,05,06,07,14,5.90
2010,05,06,07,15,6.00
2010,05,06,07,16,6.00
2010,05,06,07,17,6.10
2010,05,06,07,18,6.10
2010,05,06,07,19,6.10
2010,05,06,07,20,6.20
2010,05,06,07,21,6.20
2010,05,06,07,22,6.20
2010,05,06,07,23,6.30
2010,05,06,07,24,6.40
2010,05,06,07,25,6.50
2010,05,06,07,26,6.60
2010,05,06,07,27,6.70
2010,05,06,07,28,6.80
2010,05,06,07,29,7.00
2010,05,06,07,30,7.10
2010,05,06,07,31,7.20
2010,05,06,07,32,7.30
2010,05,06,07,33,7.50
2010,05,06,07,34,7.60
2010,05,06,07,35,7.70
2010,05,06,07,36,7.80
2010,05,06,07,37,7.90
2010,05,06,07,38,8.00
2010,05,06,07,39,8.00
2010,05,06,07,40,8.10
2010,05,06,07,41,8.20
2010,05,06,07,42,8.20
2010,05,06,07,43,8.30
2010,05,06,07,44,8.50
2010,05,06,07,45,8.60
2010,05,06,07,46,8.80
2010,05,06,07,47,8.90
2010,05,06,07,48,9.10
2010,05,06,07,49,9.20
2010,05,06,07,50,9.30
2010,05,06,07,51,9.30
2010,05,06,07,52,9.40
2010,05,06,07,53,9.40
2010,05,06,07,54,9.50
2010,05,06,07,55,9.50
2010,05,06,07,56,9.60
2010,05,06,07,57,9.70
2010,05,06,07,58,9.70
2010,05,06,07,59,9.70
2010,05,06,08,00,9.80
2010,05,06,08,01,9.80
2010,05,06,08,02,9.90
2010,05,06,08,03,9.90
2010,05,06,08,04,9.90
2010,05,06,08,05,9.90
2010,05,06,08,06,9.90
2010,05,06,08,07,9.90
2010,05,06,08,08,9.90
2010,05,06,08,09,9.90
2010,05,06,08,10,9.90
2010,05,06,08,11,9.90
2010,05,06,08,12,9.90
2010,05,06,08,13,10.10
2010,05,06,08,14,10.10
2010,05,06,08,15,10.10
2010,05,06,08,16,10.20
2010,05,06,08,17,10.30
2010,05,06,08,18,10.30
2010,05,06,08,19,10.40
2010,05,06,08,20,10.40
2010,05,06,08,21,10.60
2010,05,06,08,22,10.60
2010,05,06,08,23,10.70
2010,05,06,08,24,10.80
2010,05,06,08,25,10.80
2010,05,06,08,26,10.90
2010,05,06,08,27,11.00
2010,05,06,08,28,11.10
2010,05,06,08,29,11.10
2010,05,06,08,30,11.10
2010,05,06,08,31,11.00
2010,05,06,08,32,10.90
2010,05,06,08,33,10.80
2010,05,06,08,34,10.60
2010,05,06,08,35,10.40
2010,05,06,08,36,10.30
2010,05,06,08,37,10.20
2010,05,06,08,38,10.20
2010,05,06,08,39,10.20
2010,05,06,08,40,10.10
2010,05,06,08,41,10.10
2010,05,06,08,42,10.10
2010,05,06,08,43,10.10
2010,05,06,08,44,10.00
2010,05,06,08,45,9.90
2010,05,06,08,46,9.90
2010,05,06,08,47,9.90
2010,05,06,08,48,10.00
2010,05,06,08,49,10.10
2010,05,06,08,50,10.10
2010,05,06,08,51,10.20
2010,05,06,08,52,10.20
2010,05,06,08,53,10.30
2010,05,06,08,54,10.40
2010,05,06,08,55,10.40
2010,05,06,08,56,10.40
2010,05,06,08,57,10.40
2010,05,06,08,58,10.40
2010,05,06,08,59,10.40
2010,05,06,09,00,10.40
2010,05,06,09,01,10.40
2010,05,06,09,02,10.40
2010,05,06,09,03,10.40
2010,05,06,09,04,10.40
2010,05,06,09,05,10.40
2010,05,06,09,06,10.40
2010,05,06,09,07,10.40
2010,05,06,09,08,10.40
2010,05,06,09,09,10.40
2010,05,06,09,10,10.40
2010,05,06,09,11,10.40
2010,05,06,09,12,10.40
2010,05,06,09,13,10.40
2010,05,06,09,14,10.40
2010,05,06,09,15,10.40
2010,05,06,09,16,10.40
2010,05,06,09,17,10.40
2010,05,06,09,18,10.40
2010,05,06,09,19,10.40
2010,05,06,09,20,10.40
2010,05,06,09,21,10.30
2010,05,06,09,22,10.30
2010,05,06,09,23,10.30
2010,05,06,09,24,10.30
2010,05,06,09,25,10.40
2010,05,06,09,26,10.40
2010,05,06,09,27,10.40
2010,05,06,09,28,10.40
2010,05,06,09,29,10.30
2010,05,06,09,30,10.30
2010,05,06,09,31,10.30
2010,05,06,09,32,10.40
2010,05,06,09,33,10.40
2010,05,06,09,34,10.40
2010,05,06,09,35,10.40
2010,05,06,09,36,10.40
2010,05,06,09,37,10.30
2010,05,06,09,38,10.30
2010,05,06,09,39,10.30
2010,05,06,09,40,10.30
2010,05,06,09,41,10.40
2010,05,06,09,42,10.40
2010,05,06,09,43,10.40
2010,05,06,09,44,10.50
2010,05,06,09,45,10.50
2010,05,06,09,46,10.40
2010,05,06,09,47,10.40
2010,05,06,09,48,10.40
2010,05,06,09,49,10.40
2010,05,06,09,50,10.40
2010,05,06,09,51,10.40
2010,05,06,09,52,10.40
2010,05,06,09,53,10.40
2010,05,06,09,54,10.40
2010,05,06,09,55,10.40
2010,05,06,09,56,10.40
2010,05,06,09,57,10.40
2010,05,06,09,58,10.40
2010,05,06,09,59,10.40
2010,05,06,10,00,10.40
2010,05,06,10,01,10.50
2010,05,06,10,02,10.60
2010,05,06,10,03,10.60
2010,05,06,10,04,10.50
2010,05,06,10,05,10.40
2010,05,06,10,06,10.40
2010,05,06,10,07,10.40
2010,05,06,10,08,10.40
2010,05,06,10,09,10.40
2010,05,06,10,10,10.30
2010,05,06,10,11,10.20
2010,05,06,10,12,10.20
2010,05,06,10,13,10.30
2010,05,06,10,14,10.40
2010,05,06,10,15,10.40
2010,05,06,10,16,10.60
2010,05,06,10,17,10.60
2010,05,06,10,18,10.70
2010,05,06,10,19,10.80
2010,05,06,10,20,10.80
2010,05,06,10,21,10.80
2010,05,06,10,22,10.90
2010,05,06,10,23,10.90
2010,05,06,10,24,10.90
2010,05,06,10,25,10.90
2010,05,06,10,26,10.70
2010,05,06,10,27,10.70
2010,05,06,10,28,10.60
2010,05,06,10,29,10.60
2010,05,06,10,30,10.60
2010,05,06,10,31,10.70
2010,05,06,10,32,10.80
2010,05,06,10,33,10.80
2010,05,06,10,34,10.90
2010,05,06,10,35,10.90
2010,05,06,10,36,10.90
2010,05,06,10,37,10.90
2010,05,06,10,38,10.90
2010,05,06,10,39,11.10
2010,05,06,10,40,11.10
2010,05,06,10,41,11.10
2010,05,06,10,42,11.10
2010,05,06,10,43,11.10
2010,05,06,10,44,11.20
2010,05,06,10,45,11.30
2010,05,06,10,46,11.30
2010,05,06,10,47,11.40
2010,05,06,10,48,11.40
2010,05,06,10,49,11.30
2010,05,06,10,50,11.30
2010,05,06,10,51,11.20
2010,05,06,10,52,11.10
2010,05,06,10,53,11.10
2010,05,06,10,54,11.10
2010,05,06,10,55,11.10
2010,05,06,10,56,11.10
2010,05,06,10,57,11.10
2010,05,06,10,58,11.10
2010,05,06,10,59,11.10
2010,05,06,11,00,11.10
2010,05,06,11,01,11.10
2010,05,06,11,02,11.10
2010,05,06,11,03,11.10
2010,05,06,11,04,11.10
2010,05,06,11,05,11.00
2010,05,06,11,06,11.10
2010,05,06,11,07,11.10
2010,05,06,11,08,11.10
2010,05,06,11,09,11.10
2010,05,06,11,10,11.10
2010,05,06,11,11,11.10
2010,05,06,11,12,11.20
2010,05,06,11,13,11.20
2010,05,06,11,14,11.30
2010,05,06,11,15,11.40
2010,05,06,11,16,11.40
2010,05,06,11,17,11.40
2010,05,06,11,18,11.40
2010,05,06,11,19,11.30
2010,05,06,11,20,11.30
2010,05,06,11,21,11.30
2010,05,06,11,22,11.40
2010,05,06,11,23,11.50
2010,05,06,11,24,11.60
2010,05,06,11,25,11.60
2010,05,06,11,26,11.50
2010,05,06,11,27,11.40
2010,05,06,11,28,11.30
2010,05,06,11,29,11.20
2010,05,06,11,30,11.20
2010,05,06,11,31,11.20
2010,05,06,11,32,11.30
2010,05,06,11,33,11.30
2010,05,06,11,34,11.30
2010,05,06,11,35,11.30
2010,05,06,11,36,11.30
2010,05,06,11,37,11.30
2010,05,06,11,38,11.20
2010,05,06,11,39,11.20
2010,05,06,11,40,11.20
2010,05,06,11,41,11.20
2010,05,06,11,42,11.20
2010,05,06,11,43,11.20
2010,05,06,11,44,11.20
2010,05,06,11,45,11.10
2010,05,06,11,46,11.10
2010,05,06,11,47,11.10
2010,05,06,11,48,11.10
2010,05,06,11,49,11.00
2010,05,06,11,50,10.90
2010,05,06,11,51,11.00
2010,05,06,11,52,11.10
2010,05,06,11,53,11.10
2010,05,06,11,54,11.10
2010,05,06,11,55,11.20
2010,05,06,11,56,11.40
2010,05,06,11,57,11.30
2010,05,06,11,58,11.30
2010,05,06,11,59,11.30
2010,05,06,12,00,11.30
2010,05,06,12,01,11.30
2010,05,06,12,02,11.20
2010,05,06,12,03,11.30
2010,05,06,12,04,11.40
2010,05,06,12,05,11.40
2010,05,06,12,06,11.40
2010,05,06,12,07,11.40
2010,05,06,12,08,11.40
2010,05,06,12,09,11.40
2010,05,06,12,10,11.40
2010,05,06,12,11,11.60
2010,05,06,12,12,11.80
2010,05,06,12,13,11.80
2010,05,06,12,14,11.80
2010,05,06,12,15,11.80
2010,05,06,12,16,11.80
2010,05,06,12,17,11.80
2010,05,06,12,18,11.80
2010,05,06,12,19,11.80
2010,05,06,12,20,11.80
2010,05,06,12,21,11.70
2010,05,06,12,22,11.70
2010,05,06,12,23,11.80
2010,05,06,12,24,11.70
2010,05,06,12,25,11.60
2010,05,06,12,26,11.40
2010,05,06,12,27,11.30
2010,05,06,12,28,11.30
2010,05,06,12,29,11.30
2010,05,06,12,30,11.20
2010,05,06,12,31,11.20
2010,05,06,12,32,11.20
2010,05,06,12,33,11.30
2010,05,06,12,34,11.50
2010,05,06,12,35,11.60
2010,05,06,12,36,11.70
2010,05,06,12,37,11.80
2010,05,06,12,38,11.80
2010,05,06,12,39,11.80
2010,05,06,12,40,11.90
2010,05,06,12,41,12.00
2010,05,06,12,42,12.20
2010,05,06,12,43,12.30
2010,05,06,12,44,12.30
2010,05,06,12,45,12.50
2010,05,06,12,46,12.50
2010,05,06,12,47,12.50
2010,05,06,12,48,12.30
2010,05,06,12,49,12.20
2010,05,06,12,50,12.20
2010,05,06,12,51,12.30
2010,05,06,12,52,12.20
2010,05,06,12,53,12.10
2010,05,06,12,54,12.00
2010,05,06,12,55,12.10
2010,05,06,12,56,12.10
2010,05,06,12,57,12.00
2010,05,06,12,58,11.90
2010,05,06,12,59,11.80
2010,05,06,13,00,11.70
2010,05,06,13,01,11.60
2010,05,06,13,02,11.40
2010,05,06,13,03,11.30
2010,05,06,13,04,11.20
2010,05,06,13,05,11.10
2010,05,06,13,06,11.10
2010,05,06,13,07,11.10
2010,05,06,13,08,11.20
2010,05,06,13,09,11.20
2010,05,06,13,10,11.30
2010,05,06,13,11,11.30
2010,05,06,13,12,11.30
2010,05,06,13,13,11.30
2010,05,06,13,14,11.30
2010,05,06,13,15,11.30
2010,05,06,13,16,11.20
2010,05,06,13,17,11.20
2010,05,06,13,18,11.10
2010,05,06,13,19,11.10
2010,05,06,13,20,11.10
2010,05,06,13,21,11.10
2010,05,06,13,22,11.10
2010,05,06,13,23,11.10
2010,05,06,13,24,11.10
2010,05,06,13,25,11.10
2010,05,06,13,26,11.20
2010,05,06,13,27,11.30
2010,05,06,13,28,11.30
2010,05,06,13,29,11.30
2010,05,06,13,30,11.40
2010,05,06,13,31,11.40
2010,05,06,13,32,11.40
2010,05,06,13,33,11.30
2010,05,06,13,34,11.20
2010,05,06,13,35,11.20
2010,05,06,13,36,11.20
2010,05,06,13,37,11.20
2010,05,06,13,38,11.10
2010,05,06,13,39,11.10
2010,05,06,13,40,11.10
2010,05,06,13,41,11.10
2010,05,06,13,42,11.10
2010,05,06,13,43,11.10
2010,05,06,13,44,11.00
2010,05,06,13,45,11.00
2010,05,06,13,46,11.10
2010,05,06,13,47,11.10
2010,05,06,13,48,11.10
2010,05,06,13,49,11.10
2010,05,06,13,50,11.10
2010,05,06,13,51,11.10
2010,05,06,13,52,11.10
2010,05,06,13,53,11.10
2010,05,06,13,54,11.10
2010,05,06,13,55,11.10
2010,05,06,13,56,11.20
2010,05,06,13,57,11.20
2010,05,06,13,58,11.20
2010,05,06,13,59,11.20
2010,05,06,14,00,11.20
2010,05,06,14,01,11.20
2010,05,06,14,02,11.30
2010,05,06,14,03,11.30
2010,05,06,14,04,11.40
2010,05,06,14,05,11.40
2010,05,06,14,06,11.50
2010,05,06,14,07,11.60
2010,05,06,14,08,11.60
2010,05,06,14,09,11.60
2010,05,06,14,10,11.60
2010,05,06,14,11,11.60
2010,05,06,14,12,11.70
2010,05,06,14,13,11.70
2010,05,06,14,14,11.80
2010,05,06,14,15,11.80
2010,05,06,14,16,11.80
2010,05,06,14,17,11.80
2010,05,06,14,18,11.80
2010,05,06,14,19,11.70
2010,05,06,14,20,11.70
2010,05,06,14,21,11.80
2010,05,06,14,22,11.70
2010,05,06,14,23,11.60
2010,05,06,14,24,11.60
2010,05,06,14,25,11.60
2010,05,06,14,26,11.60
2010,05,06,14,27,11.60
2010,05,06,14,28,11.50
2010,05,06,14,29,11.40
2010,05,06,14,30,11.40
2010,05,06,14,31,11.30
2010,05,06,14,32,11.30
2010,05,06,14,33,11.30
2010,05,06,14,34,11.30
2010,05,06,14,35,11.30
2010,05,06,14,36,11.40
2010,05,06,14,37,11.40
2010,05,06,14,38,11.40
2010,05,06,14,39,11.30
2010,05,06,14,40,11.40
2010,05,06,14,41,11.40
2010,05,06,14,42,11.30
2010,05,06,14,43,11.30
2010,05,06,14,44,11.30
2010,05,06,14,45,11.30
2010,05,06,14,46,11.40
2010,05,06,14,47,11.40
2010,05,06,14,48,11.40
2010,05,06,14,49,11.40
2010,05,06,14,50,11.40
2010,05,06,14,51,11.40
2010,05,06,14,52,11.40
2010,05,06,14,53,11.40
2010,05,06,14,54,11.40
2010,05,06,14,55,11.40
2010,05,06,14,56,11.40
2010,05,06,14,57,11.40
2010,05,06,14,58,11.40
2010,05,06,14,59,11.60
2010,05,06,15,00,11.50
2010,05,06,15,01,11.40
2010,05,06,15,02,11.40
2010,05,06,15,03,11.40
2010,05,06,15,04,11.40
2010,05,06,15,05,11.40
2010,05,06,15,06,11.40
2010,05,06,15,07,11.40
2010,05,06,15,08,11.40
2010,05,06,15,09,11.40
2010,05,06,15,10,11.30
2010,05,06,15,11,11.30
2010,05,06,15,12,11.30
2010,05,06,15,13,11.30
2010,05,06,15,14,11.30
2010,05,06,15,15,11.20
2010,05,06,15,16,11.20
2010,05,06,15,17,11.20
2010,05,06,15,18,11.30
2010,05,06,15,19,11.30
2010,05,06,15,20,11.30
2010,05,06,15,21,11.40
2010,05,06,15,22,11.40
2010,05,06,15,23,11.40
2010,05,06,15,24,11.50
2010,05,06,15,25,11.60
2010,05,06,15,26,11.60
2010,05,06,15,27,11.60
2010,05,06,15,28,11.60
2010,05,06,15,29,11.60
2010,05,06,15,30,11.60
2010,05,06,15,31,11.70
2010,05,06,15,32,11.80
2010,05,06,15,33,11.80
2010,05,06,15,34,11.80
2010,05,06,15,35,11.80
2010,05,06,15,36,11.70
2010,05,06,15,37,11.70
2010,05,06,15,38,11.80
2010,05,06,15,39,11.80
2010,05,06,15,40,11.70
2010,05,06,15,41,11.80
2010,05,06,15,42,11.80
2010,05,06,15,43,11.70
2010,05,06,15,44,11.70
2010,05,06,15,45,11.80
2010,05,06,15,46,11.80
2010,05,06,15,47,11.90
2010,05,06,15,48,11.90
2010,05,06,15,49,12.00
2010,05,06,15,50,12.00
2010,05,06,15,51,12.00
2010,05,06,15,52,12.00
2010,05,06,15,53,11.90
2010,05,06,15,54,12.00
2010,05,06,15,55,12.00
2010,05,06,15,56,12.00
2010,05,06,15,57,12.00
2010,05,06,15,58,12.00
2010,05,06,15,59,11.90
2010,05,06,16,00,12.00
2010,05,06,16,01,12.00
2010,05,06,16,02,12.00
2010,05,06,16,03,12.00
2010,05,06,16,04,12.10
2010,05,06,16,05,12.10
2010,05,06,16,06,12.10
2010,05,06,16,07,12.20
2010,05,06,16,08,12.30
2010,05,06,16,09,12.20
2010,05,06,16,10,12.10
2010,05,06,16,11,12.10
2010,05,06,16,12,12.00
2010,05,06,16,13,12.00
2010,05,06,16,14,12.00
2010,05,06,16,15,11.90
2010,05,06,16,16,11.90
2010,05,06,16,17,11.90
2010,05,06,16,18,12.00
2010,05,06,16,19,12.10
2010,05,06,16,20,12.00
2010,05,06,16,21,12.10
2010,05,06,16,22,12.10
2010,05,06,16,23,12.20
2010,05,06,16,24,12.20
2010,05,06,16,25,12.20
2010,05,06,16,26,12.30
2010,05,06,16,27,12.20
2010,05,06,16,28,12.20
2010,05,06,16,29,12.20
2010,05,06,16,30,12.30
2010,05,06,16,31,12.30
2010,05,06,16,32,12.20
2010,05,06,16,33,12.10
2010,05,06,16,34,12.00
2010,05,06,16,35,12.00
2010,05,06,16,36,12.00
2010,05,06,16,37,12.10
2010,05,06,16,38,12.10
2010,05,06,16,39,12.10
2010,05,06,16,40,12.00
2010,05,06,16,41,12.00
2010,05,06,16,42,11.90
2010,05,06,16,43,12.00
2010,05,06,16,44,11.90
2010,05,06,16,45,11.90
2010,05,06,16,46,11.90
2010,05,06,16,47,11.90
2010,05,06,16,48,11.90
2010,05,06,16,49,11.90
2010,05,06,16,50,11.80
2010,05,06,16,51,11.80
2010,05,06,16,52,11.80
2010,05,06,16,53,11.80
2010,05,06,16,54,11.80
2010,05,06,16,55,11.80
2010,05,06,16,56,11.80
2010,05,06,16,57,11.90
2010,05,06,16,58,12.00
2010,05,06,16,59,12.00
2010,05,06,17,00,11.90
2010,05,06,17,01,11.80
2010,05,06,17,02,11.80
2010,05,06,17,03,11.70
2010,05,06,17,04,11.70
2010,05,06,17,05,11.80
2010,05,06,17,06,11.80
2010,05,06,17,07,11.80
2010,05,06,17,08,11.80
2010,05,06,17,09,11.80
2010,05,06,17,10,11.80
2010,05,06,17,11,11.80
2010,05,06,17,12,11.80
2010,05,06,17,13,11.90
2010,05,06,17,14,11.90
2010,05,06,17,15,12.00
2010,05,06,17,16,12.10
2010,05,06,17,17,12.10
2010,05,06,17,18,12.20
2010,05,06,17,19,12.20
2010,05,06,17,20,12.20
2010,05,06,17,21,12.30
2010,05,06,17,22,12.40
2010,05,06,17,23,12.40
2010,05,06,17,24,12.50
2010,05,06,17,25,12.50
2010,05,06,17,26,12.60
2010,05,06,17,27,12.60
2010,05,06,17,28,12.60
2010,05,06,17,29,12.60
2010,05,06,17,30,12.70
2010,05,06,17,31,12.70
2010,05,06,17,32,12.70
2010,05,06,17,33,12.70
2010,05,06,17,34,12.70
2010,05,06,17,35,12.70
2010,05,06,17,36,12.80
2010,05,06,17,37,12.80
2010,05,06,17,38,12.80
2010,05,06,17,39,12.90
2010,05,06,17,40,13.00
2010,05,06,17,41,13.00